Location: ????????
(55.5667°N, 37.5833°E)
Time: 08:26:14
(UTC+00:00)

Cosmos 1782 - Pass Details

Date: 14 April 2026
Orbit: 459 x 465 km, 82.5° (Epoch: 9 May)

Event Time Altitude Azimuth Distance (km) Brightness Sun altitude
Exits shadow 21:41:21 33° 50° (NE) 797 3.9 -24.7°
Drops below altitude 10° 21:43:41 10° 23° (NNE) 1,620 6.1 -24.7°
Sets 21:45:49 0° 17° (NNE) 2,500 7.5 -24.7°
